When you browse on this site, cookies collect data to enhance your experience and personalize the content and advertising you see.
Visit our Privacy Policy to learn more. By continuing to use the site, you agree to this use of cookies and data.

Météo par heure à Krasnokole

Ce jour, 9 Juillet, Jeudi

Heure Température Précipitation Vent Pression Humidité
00:00 +13°C° 0.4 mm 5 m/s 737 mmHg 95%
01:00 +13°C° 0.4 mm 4 m/s 737 mmHg 95%
02:00 +12°C° 0 mm 4 m/s 737 mmHg 95%
03:00 +12°C° 0.2 mm 4 m/s 737 mmHg 95%
04:00 +12°C° 0.2 mm 4 m/s 738 mmHg 95%
05:00 +12°C° 0.2 mm 4 m/s 738 mmHg 95%
06:00 +13°C° 0 mm 4 m/s 738 mmHg 90%
07:00 +14°C° 0 mm 4 m/s 739 mmHg 85%
08:00 +17°C° 0 mm 4 m/s 739 mmHg 80%
09:00 +18°C° 0 mm 4 m/s 740 mmHg 75%
10:00 +19°C° 0 mm 3 m/s 740 mmHg 70%
11:00 +20°C° 0 mm 3 m/s 740 mmHg 65%
12:00 +20°C° 0.1 mm 3 m/s 740 mmHg 65%
13:00 +20°C° 0.1 mm 3 m/s 740 mmHg 64%
14:00 +20°C° 0 mm 3 m/s 741 mmHg 63%
15:00 +20°C° 0.4 mm 3 m/s 741 mmHg 67%
16:00 +19°C° 0.4 mm 3 m/s 741 mmHg 71%
17:00 +19°C° 0.4 mm 3 m/s 741 mmHg 75%
18:00 +17°C° 0.1 mm 3 m/s 741 mmHg 81%
19:00 +16°C° 0.1 mm 2 m/s 742 mmHg 86%
20:00 +14°C° 0.1 mm 2 m/s 742 mmHg 91%
21:00 +14°C° 0 mm 2 m/s 742 mmHg 92%
22:00 +13°C° 0 mm 2 m/s 743 mmHg 93%
23:00 +12°C° 0 mm 2 m/s 743 mmHg 94%

Demain, 10 Juillet, Vendredi

Heure Température Précipitation Vent Pression Humidité
00:00 +12°C° 0 mm 2 m/s 743 mmHg 94%
01:00 +10°C° 0 mm 2 m/s 744 mmHg 93%
02:00 +10°C° 0 mm 2 m/s 744 mmHg 93%
03:00 +10°C° 0 mm 2 m/s 744 mmHg 92%
04:00 +12°C° 0 mm 1 m/s 745 mmHg 91%
05:00 +12°C° 0 mm 1 m/s 745 mmHg 90%
06:00 +14°C° 0 mm 1 m/s 745 mmHg 84%
07:00 +15°C° 0 mm 1 m/s 745 mmHg 77%
08:00 +18°C° 0 mm 1 m/s 746 mmHg 71%
09:00 +18°C° 0 mm 2 m/s 746 mmHg 67%
10:00 +19°C° 0 mm 2 m/s 746 mmHg 63%
11:00 +20°C° 0 mm 2 m/s 746 mmHg 59%
12:00 +21°C° 0 mm 3 m/s 745 mmHg 59%
13:00 +21°C° 0 mm 3 m/s 745 mmHg 58%
14:00 +22°C° 0 mm 3 m/s 745 mmHg 58%
15:00 +21°C° 0 mm 3 m/s 745 mmHg 62%
16:00 +21°C° 0 mm 3 m/s 745 mmHg 65%
17:00 +21°C° 0 mm 3 m/s 745 mmHg 69%
18:00 +20°C° 0 mm 3 m/s 745 mmHg 74%
19:00 +18°C° 0 mm 3 m/s 745 mmHg 80%
20:00 +17°C° 0 mm 3 m/s 745 mmHg 85%
21:00 +16°C° 0 mm 3 m/s 745 mmHg 86%
22:00 +14°C° 0 mm 3 m/s 745 mmHg 88%
23:00 +14°C° 0 mm 3 m/s 745 mmHg 89%

Après-demain, 11 Juillet, Samedi

Heure Température Précipitation Vent Pression Humidité
00:00 +13°C° 0 mm 3 m/s 745 mmHg 89%
01:00 +13°C° 0 mm 3 m/s 745 mmHg 89%
02:00 +13°C° 0 mm 3 m/s 745 mmHg 89%
03:00 +13°C° 0 mm 3 m/s 745 mmHg 87%
04:00 +14°C° 0 mm 4 m/s 745 mmHg 86%
05:00 +14°C° 0 mm 4 m/s 745 mmHg 84%
06:00 +17°C° 0 mm 4 m/s 745 mmHg 82%
07:00 +19°C° 0 mm 5 m/s 745 mmHg 79%
08:00 +20°C° 0 mm 5 m/s 746 mmHg 76%
09:00 +22°C° 0 mm 5 m/s 746 mmHg 74%
10:00 +23°C° 0 mm 5 m/s 745 mmHg 72%
11:00 +25°C° 0 mm 5 m/s 745 mmHg 71%
12:00 +26°C° 0 mm 5 m/s 745 mmHg 70%
13:00 +26°C° 0 mm 6 m/s 745 mmHg 70%
14:00 +27°C° 0 mm 6 m/s 745 mmHg 70%
15:00 +26°C° 0 mm 5 m/s 744 mmHg 72%
16:00 +26°C° 0 mm 5 m/s 744 mmHg 75%
17:00 +26°C° 0 mm 4 m/s 744 mmHg 77%
18:00 +25°C° 0 mm 4 m/s 744 mmHg 82%
19:00 +22°C° 0 mm 4 m/s 744 mmHg 87%
20:00 +21°C° 0 mm 3 m/s 744 mmHg 92%
21:00 +20°C° 0 mm 3 m/s 744 mmHg 93%
22:00 +20°C° 0 mm 3 m/s 744 mmHg 94%
23:00 +19°C° 0 mm 3 m/s 744 mmHg 95%

12 Juillet, Dimanche

Heure Température Précipitation Vent Pression Humidité
00:00 +19°C° 0 mm 3 m/s 744 mmHg 95%
01:00 +18°C° 0 mm 3 m/s 744 mmHg 95%
02:00 +18°C° 0 mm 3 m/s 744 mmHg 95%
03:00 +18°C° 0 mm 3 m/s 744 mmHg 94%
04:00 +18°C° 0 mm 3 m/s 743 mmHg 93%
05:00 +18°C° 0 mm 3 m/s 743 mmHg 92%
06:00 +20°C° 0 mm 3 m/s 743 mmHg 88%
07:00 +21°C° 0 mm 2 m/s 743 mmHg 83%
08:00 +24°C° 0 mm 2 m/s 743 mmHg 78%
09:00 +25°C° 0 mm 3 m/s 743 mmHg 75%
10:00 +26°C° 0 mm 3 m/s 743 mmHg 72%
11:00 +27°C° 0 mm 3 m/s 743 mmHg 69%
12:00 +27°C° 0.2 mm 3 m/s 743 mmHg 68%
13:00 +27°C° 0.2 mm 3 m/s 742 mmHg 68%
14:00 +28°C° 0.2 mm 3 m/s 742 mmHg 67%
15:00 +27°C° 0.2 mm 3 m/s 742 mmHg 70%
16:00 +27°C° 0.2 mm 2 m/s 741 mmHg 72%
17:00 +27°C° 0.2 mm 2 m/s 741 mmHg 74%
18:00 +25°C° 0.1 mm 2 m/s 741 mmHg 78%
19:00 +24°C° 0.1 mm 1 m/s 741 mmHg 82%
20:00 +22°C° 0.1 mm 1 m/s 741 mmHg 85%
21:00 +21°C° 0 mm 1 m/s 741 mmHg 86%
22:00 +20°C° 0 mm 1 m/s 741 mmHg 87%
23:00 +19°C° 0 mm 2 m/s 740 mmHg 88%

13 Juillet, Lundi

Heure Température Précipitation Vent Pression Humidité
00:00 +19°C° 0 mm 1 m/s 740 mmHg 88%
01:00 +19°C° 0 mm 1 m/s 740 mmHg 88%
02:00 +18°C° 0 mm 1 m/s 740 mmHg 88%
03:00 +19°C° 0 mm 1 m/s 739 mmHg 87%
04:00 +19°C° 0 mm 1 m/s 739 mmHg 86%
05:00 +19°C° 0 mm 1 m/s 739 mmHg 86%
06:00 +21°C° 0 mm 1 m/s 739 mmHg 81%
07:00 +22°C° 0 mm 1 m/s 739 mmHg 77%
08:00 +24°C° 0 mm 2 m/s 739 mmHg 72%
09:00 +25°C° 0 mm 2 m/s 738 mmHg 70%
10:00 +25°C° 0 mm 3 m/s 738 mmHg 67%
11:00 +26°C° 0 mm 3 m/s 738 mmHg 64%
12:00 +26°C° 0 mm 3 m/s 738 mmHg 64%
13:00 +27°C° 0 mm 2 m/s 738 mmHg 64%
14:00 +27°C° 0 mm 2 m/s 737 mmHg 63%
15:00 +26°C° 1.3 mm 2 m/s 737 mmHg 71%
16:00 +25°C° 1.3 mm 2 m/s 736 mmHg 78%
17:00 +24°C° 1.3 mm 2 m/s 736 mmHg 85%
18:00 +23°C° 1.2 mm 2 m/s 736 mmHg 87%
19:00 +22°C° 1.2 mm 1 m/s 736 mmHg 89%
20:00 +21°C° 1.2 mm 1 m/s 736 mmHg 91%
21:00 +20°C° 1 mm 1 m/s 735 mmHg 92%
22:00 +19°C° 1 mm 2 m/s 735 mmHg 94%
23:00 +19°C° 1 mm 2 m/s 735 mmHg 95%

14 Juillet, Mardi

Heure Température Précipitation Vent Pression Humidité
00:00 +19°C° 0.7 mm 2 m/s 735 mmHg 96%
01:00 +18°C° 0.7 mm 2 m/s 734 mmHg 96%
02:00 +18°C° 0.7 mm 2 m/s 734 mmHg 97%
03:00 +18°C° 1.1 mm 3 m/s 734 mmHg 97%
04:00 +18°C° 1.1 mm 3 m/s 734 mmHg 97%
05:00 +18°C° 1.1 mm 3 m/s 733 mmHg 97%
06:00 +18°C° 0.5 mm 4 m/s 733 mmHg 97%
07:00 +19°C° 0.5 mm 4 m/s 733 mmHg 97%
08:00 +19°C° 0.5 mm 4 m/s 733 mmHg 96%
09:00 +20°C° 0.7 mm 4 m/s 732 mmHg 95%
10:00 +20°C° 0.7 mm 3 m/s 732 mmHg 93%
11:00 +21°C° 0.7 mm 3 m/s 732 mmHg 92%
12:00 +22°C° 1.4 mm 3 m/s 732 mmHg 89%
13:00 +24°C° 1.4 mm 3 m/s 732 mmHg 86%
14:00 +25°C° 1.4 mm 3 m/s 732 mmHg 83%
15:00 +24°C° 0.8 mm 3 m/s 731 mmHg 85%
16:00 +24°C° 0.8 mm 3 m/s 731 mmHg 86%
17:00 +24°C° 0.8 mm 3 m/s 731 mmHg 87%
18:00 +21°C° 0.2 mm 3 m/s 731 mmHg 90%
19:00 +20°C° 0.2 mm 3 m/s 731 mmHg 93%
20:00 +19°C° 0.2 mm 3 m/s 731 mmHg 96%
21:00 +18°C° 0.1 mm 3 m/s 731 mmHg 96%
22:00 +18°C° 0.1 mm 3 m/s 731 mmHg 96%
23:00 +17°C° 0.1 mm 3 m/s 731 mmHg 95%
Voir plus